User: anonymous   Login
Location: Klein M�hlingen
(51.9472°N, 11.7453°E)
Time: 02:25:48
(UTC+00:00)
Language:

Cosmos 773 Rocket - Orbit

View from above orbital plane
View from above orbital plane
View from above satellite
View from above satellite

Ground track
Ground track

The orbit data is extracted from the following two-line orbital elements,

1  8344U 75094B   20192.79909341 -.00000051  00000-0 -78337-5 0  9991
2  8344  74.0545 222.4176 0022368 206.2091 153.7934 14.39159459346747
Epoch (UTC): 10 July 2020 19:10:41
Eccentricity: 0.0022368
inclination: 74.0545°
perigee height: 745 km
apogee height: 777 km
right ascension of ascending node: 222.4176°
argument of perigee: 206.2091°
revolutions per day: 14.39159459
mean anomaly at epoch: 153.7934°
orbit number at epoch: 34674

The dashed part of the orbit path shows where the satellite is in the earth's shadow,  

DLR